This is the latest recevied weather packets stored in our database for station/object N8HKU-5. If no packets are shown the sender has not sent any weather packets the latest 10 day(s).
| Time | Temp. | Humidity | Pressure | Rain* | Wind** | Luminosity | Snow |
|---|---|---|---|---|---|---|---|
| 1777366954 | 15° C | 90% | 1003.1 hPa | 0 mm | - | - | - |
| 1777366354 | 15° C | 90% | 1003 hPa | 0 mm | - | - | - |
| 1777365754 | 15° C | 90% | 1003.1 hPa | 0 mm | - | - | - |
| 1777365155 | 15° C | 90% | 1003.1 hPa | 0 mm | - | - | - |
| 1777364555 | 15° C | 90% | 1003.3 hPa | 0 mm | - | - | - |
| 1777363954 | 15° C | 90% | 1003.1 hPa | 0 mm | - | - | - |
| 1777363355 | 15° C | 90% | 1003 hPa | 0 mm | - | - | - |
| 1777362754 | 15° C | 90% | 1002.9 hPa | 0 mm | - | - | - |
| 1777362155 | 15° C | 90% | 1003 hPa | 0 mm | - | - | - |
| 1777361554 | 15° C | 90% | 1002.9 hPa | 0 mm | - | - | - |
| 1777360954 | 15° C | 90% | 1002.8 hPa | 0 mm | - | - | - |
| 1777360354 | 15° C | 90% | 1002.4 hPa | 0 mm | - | - | - |
| 1777359754 | 15° C | 90% | 1002.3 hPa | 0.25 mm | - | - | - |
| 1777359154 | 15.56° C | 89% | 1001.9 hPa | 0.51 mm | - | - | - |
| 1777358554 | 15° C | 90% | 1001.7 hPa | 0.76 mm | - | - | - |
| 1777357954 | 15° C | 90% | 1002.1 hPa | 1.02 mm | - | - | - |
| 1777357354 | 15.56° C | 90% | 1001 hPa | 1.78 mm | - | - | - |
| 1777356754 | 15.56° C | 90% | 1002.3 hPa | 2.03 mm | - | - | - |
| 1777356154 | 15.56° C | 90% | 1003.5 hPa | 2.03 mm | - | - | - |
| 1777355554 | 15.56° C | 90% | 1004.6 hPa | 2.03 mm | - | - | - |
| 1777354954 | 15.56° C | 91% | 1005 hPa | 1.78 mm | - | - | - |
| 1777354354 | 15.56° C | 91% | 1005.4 hPa | 1.52 mm | - | - | - |
| 1777353754 | 15.56° C | 91% | 1005.7 hPa | 1.02 mm | - | - | - |
| 1777353154 | 16.11° C | 90% | 1005.7 hPa | 0.76 mm | - | - | - |
| 1777352554 | 16.11° C | 90% | 1006.1 hPa | 1.02 mm | - | - | - |
* Rain latest hour (hover to see other rain measurements)
** Current wind speed in m/s (hover to see current wind gust speed)